Clarksburg, WV

9:32 PM EDT on August 19, 2019 (GMT -0400)
Benedum

Weather History for KCKB - July, 2019

Change the Weather History Date:

Tuesday, July 23, 2019

  Actual Average Record
Temperature  
Mean Temperature 70 °F -  
Max Temperature 78 °F 85 °F 98 °F (1933)
Min Temperature 62 °F 62 °F 44 °F (1947)
Cooling Degree Days 5    
Month to date cooling degree days 307  
Year to date cooling degree days 678  
Since 1 June cooling degree days 499  
Growing Degree Days 20 (Base 50)    
Moisture  
Dew Point 61 °F    
Average Humidity 70    
Maximum Humidity 87    
Minimum Humidity 53    
Precipitation  
Precipitation T in - - ()
Month to date precipitation 5.22  
Year to date precipitation 26.57  
Sea Level Pressure  
Sea Level Pressure 29.95 in    
Wind  
Wind Speed 5 mph (WNW)    
Max Wind Speed 12 mph    
Max Gust Speed 15 mph    
Visibility 9 miles    
Events      
Averages and records for this station are not official NWS values.
T = Trace of Precipitation, MM = Missing Value Source: NWS Daily Summary

Daily Weather History Graph

Daily Weather History Graph

Search for Another Location

Airport or City:

Astronomy

Jul. 23, 2019 Rise Set
Actual Time 6:12 AM EDT 8:41 PM EDT
Civil Twilight 5:42 AM EDT 9:12 PM EDT
Nautical Twilight 5:04 AM EDT 9:50 PM EDT
Astronomical Twilight 4:21 AM EDT 10:32 PM EDT
Moon 12:04 AM EDT (7/23) 12:22 PM EDT (7/23)
Length of Visible Light 15h 29m
Length of Day
14h 28m
Waning Gibbous, 63% of the Moon is Illuminated
Jul 23
Waning Gibbous
Jul 24
Last Quarter
Jul 31
New
Aug 7
First Quarter
Aug 15
Full

Hourly Weather History & Observations

Time (EDT) Temp. Dew Point Humidity Pressure Visibility Wind Dir Wind Speed Gust Speed Precip Events Conditions
12:08 AM 66.0 °F 62.1 °F 87% 29.95 in 9.0 mi SSW 3.5 mph - N/A   Mostly Cloudy
12:53 AM 66.0 °F 62.1 °F 87% 29.92 in 9.0 mi SSW 4.6 mph - N/A   Overcast
1:20 AM 66.0 °F 62.1 °F 87% 29.97 in 10.0 mi SW 5.8 mph - N/A   Overcast
1:53 AM 66.0 °F 62.1 °F 87% 29.92 in 10.0 mi WSW 3.5 mph - N/A   Overcast
2:53 AM 66.0 °F 62.1 °F 87% 29.91 in 9.0 mi SSW 4.6 mph - N/A   Overcast
3:53 AM 66.0 °F 63.0 °F 90% 29.91 in 7.0 mi SW 3.5 mph - N/A   Overcast
4:53 AM 66.0 °F 63.0 °F 90% 29.91 in 6.0 mi South 4.6 mph - N/A   Overcast
5:36 AM 66.9 °F 63.0 °F 87% 29.95 in 8.0 mi Calm Calm - 0.00 in   Overcast
5:45 AM 66.9 °F 63.0 °F 87% 29.96 in 8.0 mi Calm Calm - 0.00 in   Overcast
5:53 AM 66.9 °F 63.0 °F 87% 29.92 in 8.0 mi Calm Calm - 0.00 in   Overcast
6:45 AM 66.9 °F 63.0 °F 87% 29.96 in 5.0 mi Calm Calm - 0.00 in   Overcast
6:53 AM 66.9 °F 63.0 °F 87% 29.93 in 5.0 mi West 3.5 mph - 0.00 in   Overcast
7:02 AM 66.9 °F 63.0 °F 87% 29.97 in 6.0 mi Calm Calm - N/A   Mostly Cloudy
7:17 AM 66.9 °F 63.0 °F 87% 29.97 in 7.0 mi WNW 3.5 mph - N/A   Mostly Cloudy
7:24 AM 66.9 °F 63.0 °F 87% 29.97 in 8.0 mi WNW 3.5 mph - N/A   Mostly Cloudy
7:31 AM 66.9 °F 62.1 °F 84% 29.97 in 9.0 mi NW 5.8 mph - N/A   Mostly Cloudy
7:44 AM 68.0 °F 62.1 °F 81% 29.97 in 10.0 mi NW 5.8 mph - N/A   Mostly Cloudy
7:53 AM 68.0 °F 62.1 °F 81% 29.94 in 10.0 mi NW 5.8 mph - N/A   Scattered Clouds
8:53 AM 69.1 °F 61.0 °F 75% 29.94 in 10.0 mi NNW 5.8 mph - N/A   Partly Cloudy
9:14 AM 70.0 °F 61.0 °F 73% 29.98 in 10.0 mi Variable 5.8 mph - N/A   Mostly Cloudy
9:53 AM 72.0 °F 61.0 °F 68% 29.94 in 10.0 mi North 5.8 mph - N/A   Scattered Clouds
10:02 AM 72.0 °F 62.1 °F 71% 29.97 in 10.0 mi Variable 4.6 mph - N/A   Mostly Cloudy
10:19 AM 71.1 °F 60.1 °F 68% 29.98 in 10.0 mi Variable 3.5 mph - N/A   Scattered Clouds
10:53 AM 72.0 °F 60.1 °F 66% 29.94 in 10.0 mi NNW 3.5 mph - N/A   Scattered Clouds
11:11 AM 71.1 °F 60.1 °F 68% 29.98 in 10.0 mi NNW 9.2 mph - N/A   Mostly Cloudy
11:24 AM 72.0 °F 61.0 °F 68% 29.97 in 10.0 mi NNW 9.2 mph - N/A   Mostly Cloudy
11:53 AM 73.0 °F 60.1 °F 64% 29.94 in 10.0 mi NW 10.4 mph - N/A   Scattered Clouds
12:53 PM 75.0 °F 60.1 °F 60% 29.94 in 10.0 mi NW 8.1 mph - N/A   Scattered Clouds
1:53 PM 77.0 °F 61.0 °F 58% 29.93 in 10.0 mi NNW 6.9 mph - N/A   Clear
2:53 PM 77.0 °F 61.0 °F 58% 29.92 in 10.0 mi West 8.1 mph - N/A   Scattered Clouds
3:53 PM 73.9 °F 59.0 °F 59% 29.92 in 10.0 mi North 8.1 mph - N/A   Mostly Cloudy
4:53 PM 77.0 °F 62.1 °F 60% 29.91 in 10.0 mi NNE 6.9 mph - N/A   Scattered Clouds
5:53 PM 75.0 °F 57.0 °F 53% 29.91 in 10.0 mi NNW 8.1 mph - N/A   Scattered Clouds
6:53 PM 75.0 °F 57.0 °F 53% 29.91 in 10.0 mi NW 6.9 mph - N/A   Clear
7:53 PM 73.9 °F 55.9 °F 53% 29.93 in 10.0 mi NNW 8.1 mph - N/A   Clear
8:53 PM 71.1 °F 55.9 °F 59% 29.94 in 10.0 mi WNW 3.5 mph - N/A   Clear
9:53 PM 66.0 °F 57.9 °F 75% 29.96 in 10.0 mi Calm Calm - N/A   Mostly Cloudy
10:53 PM 64.9 °F 59.0 °F 81% 29.98 in 10.0 mi Calm Calm - N/A   Mostly Cloudy
11:53 PM 64.9 °F 57.9 °F 78% 29.98 in 10.0 mi Calm Calm - N/A   Partly Cloudy